Home   Weather   Troisdorf   Past weeks
Flag for Germany

Past Weather in Troisdorf, North Rhine-Westphalia, Germany — Yesterday and Last 2 Weeks

Now
79 °F

Passing clouds.


Feels Like: 79 °F
Forecast: 83 / 53 °F
Wind: 5 mph from East

Location: Koeln / Bonn

Current Time: Aug 22, 2019 at 7:53:48 pm

Latest Report: Aug 22, 2019 at 6:50 pm


Visibility: N/A

Pressure: 30.24 "Hg

Humidity: 34%

Dew Point: 48 °F

Location of TroisdorfLocation

Past Weather in Troisdorf — Graph

°F

Troisdorf Temperature Yesterday

Maximum temperature yesterday: 75 °F (at 3:50 pm)
Minimum temperature yesterday: 48 °F (at 6:20 am)
Average temperature yesterday: 62 °F

High & Low Weather Summary for the Past Weeks

 TemperatureHumidityPressure
High81 °F (Aug 22, 5:50 pm)100% (Aug 9, 8:50 pm)30.39 "Hg (Aug 9, 8:50 pm)
Low46 °F (Aug 14, 6:20 am)30% (Aug 22, 3:50 pm)29.65 "Hg (Aug 18, 11:50 am)
Average64 °F71%29.99 "Hg
* Reported Aug 7 6:20 pm — Aug 22 6:20 pm, Troisdorf. Weather by CustomWeather, © 2019

Note: Actual official high and low records may vary slightly from our data, if they occured in-between our weather recording intervals... More about our weather records

Advertising

Troisdorf Weather History for the Previous 24 Hours

Scroll right to see more
 ConditionsComfort  
Time TempWeatherWind HumidityBarometerVisibility
6:20 pm
Thu, Aug 22
81 °FPassing clouds.3 mph32%30.24 "HgN/A
5:50 pm81 °FPassing clouds.5 mph34%30.24 "HgN/A
5:20 pm79 °FPassing clouds.3 mph32%30.24 "HgN/A
4:50 pm79 °FSunny.5 mph32%30.24 "Hg10 mi
4:20 pm79 °FPassing clouds.5 mph32%30.24 "HgN/A
3:50 pm79 °FSunny.5 mph30%30.27 "Hg10 mi
3:20 pm79 °FSunny.2 mph34%30.27 "Hg10 mi
2:50 pm79 °FPassing clouds.5 mph34%30.27 "HgN/A
2:20 pm77 °FSunny.5 mph34%30.27 "Hg10 mi
1:50 pm77 °FPassing clouds.9 mph36%30.27 "HgN/A
1:20 pm75 °FSunny.10 mph36%30.27 "Hg10 mi
12:50 pm75 °FPassing clouds.9 mph39%30.30 "HgN/A
12:20 pm75 °FPassing clouds.6 mph39%30.30 "HgN/A
11:50 am73 °FPassing clouds.6 mph41%30.30 "HgN/A
11:20 am72 °FPassing clouds.6 mph44%30.30 "HgN/A
10:50 am70 °FSunny.8 mph50%30.33 "Hg10 mi
10:20 am68 °FPassing clouds.9 mph53%30.33 "HgN/A
9:50 am66 °FPassing clouds.9 mph56%30.33 "HgN/A
9:20 am63 °FSunny.6 mph64%30.30 "Hg10 mi
8:50 am61 °FPassing clouds.5 mph68%30.30 "HgN/A
7:50 am52 °FSunny.3 mph88%30.30 "Hg10 mi
7:20 am50 °FSunny.1 mph88%30.30 "Hg10 mi
6:50 am46 °FSunny.1 mph93%30.30 "Hg10 mi
6:20 am46 °FClear.6 mph93%30.30 "Hg10 mi
5:50 am48 °FClear.5 mph94%30.30 "Hg10 mi
5:20 am50 °FClear.1 mph88%30.30 "Hg10 mi
4:50 am52 °FClear.5 mph82%30.30 "Hg10 mi
4:20 am55 °FClear.2 mph72%30.30 "Hg10 mi
3:50 am57 °FPassing clouds.3 mph67%30.30 "HgN/A
3:20 am55 °FPassing clouds.3 mph72%30.30 "HgN/A
2:50 am57 °FClear.1 mph67%30.30 "Hg10 mi
2:20 am54 °FClear.3 mph82%30.30 "Hg10 mi
1:50 am52 °FClear.2 mph88%30.30 "Hg10 mi
1:20 am54 °FClear.5 mph82%30.30 "Hg10 mi
12:50 am54 °FClear.5 mph82%30.30 "Hg10 mi
12:20 am54 °FClear.1 mph82%30.33 "Hg10 mi
11:50 pm
Wed, Aug 21
57 °FClear.2 mph72%30.30 "Hg10 mi
11:20 pm57 °FClear.1 mph72%30.33 "Hg10 mi
10:50 pm61 °FClear.2 mph63%30.30 "Hg10 mi
10:20 pm61 °FClear.2 mph63%30.33 "Hg10 mi
9:50 pm61 °FClear.5 mph68%30.30 "Hg10 mi
9:20 pm64 °FClear.6 mph56%30.30 "Hg10 mi
8:50 pm64 °FClear.5 mph64%30.30 "Hg10 mi
8:20 pm68 °FSunny.3 mph56%30.30 "Hg10 mi
7:50 pm70 °FSunny.5 mph50%30.30 "Hg10 mi
7:20 pm72 °FSunny.3 mph44%30.30 "Hg10 mi
Weather by CustomWeather, © 2019

See weather overview